| time (UTC) | temp C | wind direction | speed KPH | gust KPH | rain 1hr cm | rain 24hr cm | rain mn cm | humidity % | barometer mb |
| 20260508023341 | 7 | 248 | 0.0 | 0.0 | 0.00 | 0.00 | 0.00 | 86 | 1016.2 |
| 20260508022723 | 7 | 23 | 0.0 | 0.0 | 0.00 | 0.00 | 0.00 | 86 | 1016.2 |
| 20260508021515 | 7 | 158 | 0.0 | 0.0 | 0.00 | 0.00 | 0.00 | 87 | 1015.9 |
| 20260508020945 | 7 | 113 | 0.0 | 3.2 | 0.00 | 0.00 | 0.00 | 87 | 1016.2 |
| 20260508020349 | 7 | 248 | 0.0 | 0.0 | 0.00 | 0.00 | 0.00 | 84 | 1016.2 |
| 20260508015738 | 8 | 248 | 0.0 | 0.0 | 0.00 | 0.00 | 0.00 | 82 | 1016.2 |
| 20260508015145 | 8 | 293 | 0.0 | 0.0 | 0.00 | 0.00 | 0.00 | 80 | 1015.5 |
| 20260508014517 | 8 | 270 | 0.0 | 0.0 | 0.00 | 0.00 | 0.00 | 79 | 1015.5 |
| 20260508012725 | 9 | 113 | 0.0 | 0.0 | 0.00 | 0.00 | 0.00 | 79 | 1015.5 |
| 20260508011528 | 10 | 135 | 0.0 | 1.6 | 0.00 | 0.00 | 0.00 | 75 | 1015.2 |
| 20260508010935 | 10 | 135 | 0.0 | 0.0 | 0.00 | 0.00 | 0.00 | 72 | 1015.2 |
| 20260508010349 | 11 | 225 | 0.0 | 0.0 | 0.00 | 0.00 | 0.00 | 73 | 1015.2 |
| 20260508005736 | 11 | 248 | 0.0 | 0.0 | 0.00 | 0.00 | 0.00 | 74 | 1015.2 |
| 20260508003908 | 12 | 180 | 3.2 | 3.2 | 0.00 | 0.00 | 0.00 | 70 | 1014.9 |
| 20260508003340 | 12 | 225 | 4.8 | 4.8 | 0.00 | 0.00 | 0.00 | 66 | 1014.5 |
| 20260508002734 | 13 | 270 | 0.0 | 3.2 | 0.00 | 0.00 | 0.00 | 69 | 1014.5 |
| 20260508002110 | 13 | 113 | 0.0 | 4.8 | 0.00 | 0.00 | 0.00 | 66 | 1014.2 |
| 20260508001532 | 14 | 248 | 0.0 | 0.0 | 0.00 | 0.00 | 0.00 | 64 | 1014.2 |
| 20260508000949 | 15 | 135 | 0.0 | 3.2 | 0.00 | 0.00 | 0.00 | 63 | 1014.2 |
| 20260508000335 | 15 | 248 | 1.6 | 3.2 | 0.00 | 0.00 | 0.00 | 58 | 1014.2 |
| 20260507235747 | 16 | 113 | 3.2 | 4.8 | 0.00 | 0.00 | 0.00 | 57 | 1014.2 |
| 20260507235119 | 17 | 270 | 0.0 | 6.4 | 0.00 | 0.00 | 0.00 | 51 | 1013.8 |
| 20260507234551 | 15 | 225 | 4.8 | 4.8 | 0.00 | 0.00 | 0.00 | 54 | 1013.8 |
| 20260507233938 | 16 | 270 | 8.0 | 9.7 | 0.00 | 0.00 | 0.00 | 49 | 1013.8 |
| 20260507233347 | 16 | 315 | 4.8 | 9.7 | 0.00 | 0.00 | 0.00 | 48 | 1013.8 |
| 20260507231535 | 17 | 270 | 4.8 | 9.7 | 0.00 | 0.00 | 0.00 | 48 | 1013.8 |
| 20260507225744 | 16 | 225 | 9.7 | 9.7 | 0.00 | 0.00 | 0.00 | 57 | 1013.8 |
| 20260507225120 | 15 | 203 | 3.2 | 3.2 | 0.00 | 0.00 | 0.00 | 58 | 1013.5 |
| 20260507224527 | 16 | 180 | 3.2 | 6.4 | 0.00 | 0.00 | 0.00 | 48 | 1013.5 |
| 20260507223918 | 16 | 293 | 6.4 | 6.4 | 0.00 | 0.00 | 0.00 | 49 | 1013.5 |
| 20260507223338 | 16 | 270 | 11.3 | 11.3 | 0.00 | 0.00 | 0.00 | 47 | 1013.5 |
| 20260507222719 | 17 | 225 | 4.8 | 14.5 | 0.00 | 0.00 | 0.00 | 47 | 1013.5 |
| 20260507221516 | 17 | 270 | 17.7 | 17.7 | 0.00 | 0.00 | 0.00 | 46 | 1013.5 |
| 20260507220312 | 17 | 270 | 17.7 | 17.7 | 0.00 | 0.00 | 0.00 | 47 | 1013.2 |
| 20260507215738 | 18 | 225 | 17.7 | 17.7 | 0.00 | 0.00 | 0.00 | 44 | 1013.2 |
| 20260507215144 | 18 | 270 | 19.3 | 19.3 | 0.00 | 0.00 | 0.00 | 46 | 1013.2 |
| 20260507213944 | 17 | 270 | 8.0 | 16.1 | 0.00 | 0.00 | 0.00 | 49 | 1013.2 |
| 20260507212737 | 17 | 248 | 4.8 | 14.5 | 0.00 | 0.00 | 0.00 | 48 | 1013.2 |
| 20260507211532 | 16 | 248 | 11.3 | 14.5 | 0.00 | 0.00 | 0.00 | 49 | 1012.8 |
| 20260507210928 | 17 | 270 | 17.7 | 17.7 | 0.00 | 0.00 | 0.00 | 48 | 1012.8 |
| 20260507210344 | 17 | 270 | 8.0 | 20.9 | 0.00 | 0.00 | 0.00 | 48 | 1012.8 |
| 20260507204547 | 17 | 270 | 12.9 | 19.3 | 0.00 | 0.00 | 0.00 | 49 | 1012.8 |
| 20260507202737 | 17 | 248 | 3.2 | 14.5 | 0.00 | 0.00 | 0.00 | 49 | 1012.8 |
| 20260507202152 | 18 | 225 | 19.3 | 19.3 | 0.00 | 0.00 | 0.00 | 49 | 1012.8 |
| 20260507201538 | 18 | 270 | 11.3 | 17.7 | 0.00 | 0.00 | 0.00 | 48 | 1012.8 |
| 20260507200938 | 18 | 293 | 8.0 | 8.0 | 0.00 | 0.00 | 0.00 | 52 | 1013.2 |
| 20260507195752 | 18 | 225 | 19.3 | 20.9 | 0.00 | 0.00 | 0.00 | 51 | 1013.2 |
| 20260507195151 | 17 | 270 | 6.4 | 14.5 | 0.00 | 0.00 | 0.00 | 50 | 1013.5 |
| 20260507194514 | 17 | 248 | 11.3 | 11.3 | 0.00 | 0.00 | 0.00 | 51 | 1013.5 |
| 20260507193951 | 17 | 270 | 12.9 | 19.3 | 0.00 | 0.00 | 0.00 | 50 | 1013.5 |
| 20260507192732 | 18 | 270 | 14.5 | 14.5 | 0.00 | 0.00 | 0.00 | 50 | 1013.5 |
| 20260507192146 | 17 | 225 | 6.4 | 16.1 | 0.00 | 0.00 | 0.00 | 50 | 1013.5 |
| 20260507191535 | 18 | 248 | 16.1 | 20.9 | 0.00 | 0.00 | 0.00 | 49 | 1013.5 |
| 20260507190936 | 18 | 248 | 9.7 | 14.5 | 0.00 | 0.00 | 0.00 | 50 | 1013.5 |
| 20260507185724 | 17 | 225 | 4.8 | 16.1 | 0.00 | 0.00 | 0.00 | 50 | 1013.5 |
| 20260507185150 | 17 | 248 | 12.9 | 12.9 | 0.00 | 0.00 | 0.00 | 52 | 1013.8 |
| 20260507184549 | 17 | 270 | 14.5 | 14.5 | 0.00 | 0.00 | 0.00 | 51 | 1013.8 |
| 20260507183952 | 17 | 270 | 11.3 | 16.1 | 0.00 | 0.00 | 0.00 | 53 | 1013.5 |
| 20260507183308 | 17 | 270 | 16.1 | 16.1 | 0.00 | 0.00 | 0.00 | 51 | 1013.5 |
| 20260507182714 | 17 | 113 | 3.2 | 11.3 | 0.00 | 0.00 | 0.00 | 53 | 1013.5 |
| 20260507182150 | 17 | 248 | 11.3 | 12.9 | 0.00 | 0.00 | 0.00 | 53 | 1013.8 |
| 20260507181510 | 16 | 270 | 8.0 | 12.9 | 0.00 | 0.00 | 0.00 | 53 | 1013.8 |
| 20260507180928 | 18 | 248 | 8.0 | 17.7 | 0.00 | 0.00 | 0.00 | 52 | 1013.8 |
| 20260507180324 | 17 | 135 | 4.8 | 16.1 | 0.00 | 0.00 | 0.00 | 52 | 1013.8 |
| 20260507174520 | 16 | 270 | 8.0 | 9.7 | 0.00 | 0.00 | 0.00 | 53 | 1013.8 |
| 20260507173945 | 16 | 270 | 11.3 | 17.7 | 0.00 | 0.00 | 0.00 | 52 | 1014.2 |
| 20260507172732 | 17 | 225 | 12.9 | 14.5 | 0.00 | 0.00 | 0.00 | 56 | 1014.2 |
| 20260507172129 | 17 | 248 | 12.9 | 19.3 | 0.00 | 0.00 | 0.00 | 51 | 1014.5 |
| 20260507170911 | 16 | 225 | 8.0 | 17.7 | 0.00 | 0.00 | 0.00 | 54 | 1014.9 |
| 20260507170321 | 16 | 113 | 4.8 | 16.1 | 0.00 | 0.00 | 0.00 | 53 | 1014.9 |
| 20260507165750 | 16 | 248 | 9.7 | 14.5 | 0.00 | 0.00 | 0.00 | 53 | 1014.9 |
| 20260507165135 | 16 | 0 | 11.3 | 11.3 | 0.00 | 0.00 | 0.00 | 55 | 1014.5 |
| 20260507163923 | 15 | 293 | 8.0 | 16.1 | 0.00 | 0.00 | 0.00 | 55 | 1015.2 |
| 20260507162722 | 16 | 248 | 9.7 | 9.7 | 0.00 | 0.00 | 0.00 | 57 | 1015.2 |
| 20260507162152 | 16 | 248 | 16.1 | 16.1 | 0.00 | 0.00 | 0.00 | 59 | 1015.2 |
| 20260507161555 | 15 | 225 | 12.9 | 14.5 | 0.00 | 0.00 | 0.00 | 58 | 1015.2 |
| 20260507160923 | 15 | 90 | 11.3 | 14.5 | 0.00 | 0.00 | 0.00 | 59 | 1015.2 |
| 20260507160346 | 15 | 248 | 8.0 | 11.3 | 0.00 | 0.00 | 0.00 | 58 | 1015.2 |
| 20260507155731 | 15 | 225 | 8.0 | 11.3 | 0.00 | 0.00 | 0.00 | 61 | 1015.2 |
| 20260507155123 | 15 | 180 | 6.4 | 6.4 | 0.00 | 0.00 | 0.00 | 59 | 1015.5 |
| 20260507154519 | 15 | 225 | 3.2 | 16.1 | 0.00 | 0.00 | 0.00 | 59 | 1015.5 |
| 20260507153911 | 15 | 293 | 9.7 | 12.9 | 0.00 | 0.00 | 0.00 | 60 | 1015.5 |
| 20260507153316 | 15 | 270 | 6.4 | 9.7 | 0.00 | 0.00 | 0.00 | 65 | 1015.5 |
| 20260507152750 | 15 | 248 | 6.4 | 12.9 | 0.00 | 0.00 | 0.00 | 64 | 1015.5 |
| 20260507151534 | 14 | 270 | 6.4 | 8.0 | 0.00 | 0.00 | 0.00 | 65 | 1015.9 |
| 20260507150347 | 14 | 270 | 4.8 | 11.3 | 0.00 | 0.00 | 0.00 | 64 | 1015.9 |
| 20260507145715 | 13 | 225 | 6.4 | 16.1 | 0.00 | 0.00 | 0.00 | 62 | 1015.9 |
| 20260507145111 | 13 | 270 | 1.6 | 1.6 | 0.00 | 0.00 | 0.00 | 69 | 1015.9 |
| 20260507144515 | 13 | 270 | 9.7 | 9.7 | 0.00 | 0.00 | 0.00 | 71 | 1016.2 |
| 20260507143939 | 13 | 180 | 4.8 | 4.8 | 0.00 | 0.00 | 0.00 | 73 | 1016.2 |
| 20260507143320 | 13 | 225 | 1.6 | 9.7 | 0.00 | 0.00 | 0.00 | 71 | 1016.2 |
| 20260507142123 | 13 | 270 | 9.7 | 11.3 | 0.00 | 0.00 | 0.00 | 73 | 1016.2 |
| 20260507141518 | 13 | 45 | 3.2 | 9.7 | 0.00 | 0.00 | 0.00 | 73 | 1016.5 |
| 20260507140926 | 13 | 135 | 3.2 | 8.0 | 0.00 | 0.00 | 0.00 | 78 | 1016.5 |
| 20260507140342 | 13 | 203 | 6.4 | 6.4 | 0.00 | 0.00 | 0.00 | 78 | 1016.9 |
| 20260507135143 | 13 | 180 | 3.2 | 4.8 | 0.00 | 0.00 | 0.00 | 86 | 1016.9 |
| 20260507134519 | 12 | 315 | 4.8 | 8.0 | 0.00 | 0.00 | 0.00 | 85 | 1016.9 |
| 20260507133319 | 13 | 270 | 6.4 | 6.4 | 0.00 | 0.00 | 0.00 | 85 | 1017.2 |
| 20260507132743 | 13 | 248 | 6.4 | 6.4 | 0.00 | 0.00 | 0.00 | 86 | 1017.2 |
| 20260507132122 | 12 | 270 | 3.2 | 3.2 | 0.00 | 0.00 | 0.00 | 90 | 1017.2 |
| 20260507130911 | 13 | 45 | 3.2 | 6.4 | 0.00 | 0.00 | 0.00 | 89 | 1017.2 |
| 20260507130311 | 13 | 113 | 0.0 | 0.0 | 0.00 | 0.00 | 0.00 | 95 | 1017.2 |
| 20260507124550 | 11 | 68 | 0.0 | 0.0 | 0.00 | 0.00 | 0.00 | 97 | 1017.2 |
| 20260507123943 | 12 | 248 | 0.0 | 0.0 | 0.00 | 0.00 | 0.00 | 93 | 1017.2 |
| 20260507123343 | 12 | 0 | 0.0 | 0.0 | 0.00 | 0.00 | 0.00 | 94 | 1017.2 |
| 20260507122748 | 12 | 338 | 0.0 | 0.0 | 0.00 | 0.00 | 0.00 | 95 | 1017.2 |
| 20260507122127 | 12 | 248 | 0.0 | 0.0 | 0.00 | 0.00 | 0.00 | 96 | 1017.2 |
| 20260507120340 | 11 | 90 | 0.0 | 0.0 | 0.00 | 0.00 | 0.00 | 99 | 1017.2 |
| 20260507115712 | 11 | 68 | 0.0 | 0.0 | 0.00 | 0.00 | 0.00 | 99 | 1017.2 |
| 20260507115146 | 11 | 90 | 0.0 | 0.0 | 0.00 | 0.00 | 0.00 | 99 | 1017.2 |
| 20260507114527 | 11 | 90 | 0.0 | 0.0 | 0.00 | 0.00 | 0.00 | 99 | 1016.9 |
| 20260507113916 | 10 | 270 | 0.0 | 0.0 | 0.00 | 0.00 | 0.00 | 99 | 1016.9 |
| 20260507113326 | 11 | 90 | 0.0 | 0.0 | 0.00 | 0.00 | 0.00 | 99 | 1016.9 |
| 20260507112752 | 10 | 90 | 0.0 | 0.0 | 0.00 | 0.00 | 0.00 | 99 | 1016.9 |
| 20260507111513 | 10 | 270 | 0.0 | 0.0 | 0.00 | 0.00 | 0.00 | 99 | 1016.9 |
| 20260507110940 | 10 | 270 | 0.0 | 0.0 | 0.00 | 0.00 | 0.00 | 99 | 1016.9 |
| 20260507110320 | 10 | 180 | 0.0 | 0.0 | 0.00 | 0.00 | 0.00 | 99 | 1016.9 |
| 20260507105718 | 10 | 158 | 0.0 | 0.0 | 0.00 | 0.00 | 0.00 | 99 | 1016.9 |
| 20260507105143 | 10 | 248 | 0.0 | 0.0 | 0.00 | 0.00 | 0.00 | 99 | 1016.5 |
| 20260507104546 | 10 | 270 | 0.0 | 0.0 | 0.00 | 0.00 | 0.00 | 99 | 1016.5 |
| 20260507103320 | 10 | 203 | 0.0 | 0.0 | 0.00 | 0.00 | 0.00 | 99 | 1016.5 |
| 20260507102729 | 10 | 248 | 0.0 | 0.0 | 0.00 | 0.00 | 0.00 | 99 | 1016.5 |
| 20260507101525 | 10 | 180 | 0.0 | 0.0 | 0.00 | 0.00 | 0.00 | 99 | 1016.5 |
| 20260507100912 | 10 | 270 | 0.0 | 0.0 | 0.00 | 0.00 | 0.00 | 99 | 1016.5 |
| 20260507100332 | 10 | 158 | 0.0 | 0.0 | 0.00 | 0.00 | 0.00 | 99 | 1016.5 |
| 20260507095740 | 10 | 113 | 0.0 | 0.0 | 0.00 | 0.00 | 0.00 | 99 | 1016.5 |
| 20260507095110 | 10 | 248 | 0.0 | 0.0 | 0.00 | 0.00 | 0.00 | 99 | 1016.2 |
| 20260507093930 | 10 | 248 | 0.0 | 0.0 | 0.00 | 0.00 | 0.00 | 99 | 1016.2 |
| 20260507093344 | 10 | 203 | 0.0 | 0.0 | 0.00 | 0.00 | 0.00 | 99 | 1016.2 |
| 20260507092744 | 10 | 225 | 0.0 | 0.0 | 0.00 | 0.00 | 0.00 | 99 | 1016.2 |
| 20260507092130 | 10 | 225 | 0.0 | 0.0 | 0.00 | 0.00 | 0.00 | 99 | 1016.2 |
| 20260507091510 | 10 | 180 | 0.0 | 0.0 | 0.00 | 0.00 | 0.00 | 99 | 1016.2 |
| 20260507090940 | 11 | 225 | 0.0 | 0.0 | 0.00 | 0.00 | 0.00 | 99 | 1016.2 |
| 20260507090318 | 11 | 248 | 0.0 | 0.0 | 0.00 | 0.00 | 0.00 | 99 | 1016.2 |
| 20260507085715 | 11 | 225 | 0.0 | 0.0 | 0.00 | 0.00 | 0.00 | 99 | 1016.2 |
| 20260507085109 | 11 | 248 | 0.0 | 0.0 | 0.00 | 0.00 | 0.00 | 99 | 1016.2 |
| 20260507084541 | 11 | 270 | 0.0 | 0.0 | 0.00 | 0.00 | 0.00 | 99 | 1016.2 |
| 20260507083925 | 11 | 270 | 0.0 | 0.0 | 0.00 | 0.00 | 0.00 | 99 | 1016.2 |
| 20260507083327 | 11 | 203 | 0.0 | 0.0 | 0.00 | 0.00 | 0.00 | 99 | 1016.2 |
| 20260507082121 | 11 | 248 | 0.0 | 0.0 | 0.00 | 0.00 | 0.00 | 99 | 1016.2 |
| 20260507081530 | 11 | 270 | 0.0 | 0.0 | 0.00 | 0.00 | 0.00 | 99 | 1016.2 |
| 20260507080917 | 12 | 270 | 0.0 | 0.0 | 0.00 | 0.00 | 0.00 | 99 | 1016.2 |
| 20260507080337 | 12 | 270 | 0.0 | 0.0 | 0.00 | 0.00 | 0.00 | 99 | 1016.2 |
| 20260507075716 | 12 | 225 | 0.0 | 0.0 | 0.00 | 0.00 | 0.00 | 99 | 1016.2 |
| 20260507075136 | 12 | 270 | 0.0 | 0.0 | 0.00 | 0.00 | 0.00 | 99 | 1016.5 |
| 20260507074541 | 12 | 180 | 0.0 | 0.0 | 0.00 | 0.00 | 0.00 | 99 | 1016.5 |
| 20260507073952 | 12 | 270 | 0.0 | 0.0 | 0.00 | 0.00 | 0.00 | 99 | 1016.5 |
| 20260507073329 | 12 | 270 | 0.0 | 0.0 | 0.00 | 0.00 | 0.00 | 99 | 1016.2 |
| 20260507072748 | 12 | 203 | 0.0 | 0.0 | 0.00 | 0.00 | 0.00 | 99 | 1016.2 |
| 20260507072116 | 12 | 180 | 0.0 | 0.0 | 0.00 | 0.00 | 0.00 | 99 | 1016.5 |
| 20260507071537 | 12 | 203 | 0.0 | 0.0 | 0.00 | 0.00 | 0.00 | 99 | 1016.5 |
| 20260507070310 | 12 | 158 | 0.0 | 0.0 | 0.00 | 0.00 | 0.00 | 99 | 1016.2 |
| 20260507065753 | 12 | 203 | 0.0 | 0.0 | 0.00 | 0.00 | 0.00 | 99 | 1016.2 |
| 20260507064514 | 12 | 180 | 0.0 | 0.0 | 0.00 | 0.00 | 0.00 | 99 | 1016.2 |
| 20260507063913 | 12 | 180 | 0.0 | 0.0 | 0.00 | 0.00 | 0.00 | 99 | 1016.2 |
| 20260507063347 | 12 | 225 | 0.0 | 0.0 | 0.00 | 0.00 | 0.00 | 99 | 1016.2 |
| 20260507062716 | 12 | 180 | 0.0 | 0.0 | 0.00 | 0.00 | 0.00 | 99 | 1016.2 |
| 20260507062130 | 12 | 180 | 0.0 | 0.0 | 0.00 | 0.00 | 0.00 | 99 | 1016.5 |
| 20260507061517 | 12 | 90 | 0.0 | 0.0 | 0.00 | 0.00 | 0.00 | 99 | 1016.5 |
| 20260507060928 | 12 | 68 | 0.0 | 0.0 | 0.00 | 0.00 | 0.00 | 99 | 1016.5 |
| 20260507060317 | 12 | 135 | 0.0 | 0.0 | 0.00 | 0.00 | 0.00 | 99 | 1016.5 |
| 20260507055734 | 12 | 270 | 0.0 | 0.0 | 0.00 | 0.00 | 0.00 | 99 | 1016.5 |
| 20260507055110 | 12 | 225 | 0.0 | 0.0 | 0.00 | 0.00 | 0.00 | 99 | 1016.5 |
| 20260507053926 | 12 | 180 | 0.0 | 0.0 | 0.00 | 0.00 | 0.00 | 99 | 1016.5 |
| 20260507052712 | 12 | 158 | 0.0 | 0.0 | 0.00 | 0.00 | 0.00 | 99 | 1017.2 |
| 20260507052148 | 12 | 158 | 0.0 | 0.0 | 0.00 | 0.00 | 0.00 | 99 | 1017.2 |
| 20260507051524 | 12 | 180 | 0.0 | 0.0 | 0.00 | 0.00 | 0.00 | 99 | 1017.2 |
| 20260507050911 | 12 | 90 | 0.0 | 0.0 | 0.00 | 0.00 | 0.00 | 99 | 1017.2 |
| 20260507050342 | 12 | 203 | 0.0 | 0.0 | 0.00 | 0.00 | 0.00 | 99 | 1017.2 |
| 20260507045750 | 12 | 90 | 0.0 | 0.0 | 0.00 | 0.00 | 0.00 | 99 | 1017.2 |
| 20260507045142 | 12 | 90 | 0.0 | 0.0 | 0.00 | 0.00 | 0.00 | 99 | 1016.9 |
| 20260507044539 | 12 | 90 | 0.0 | 0.0 | 0.00 | 0.00 | 0.00 | 99 | 1017.2 |
| 20260507043954 | 12 | 45 | 0.0 | 0.0 | 0.00 | 0.00 | 0.00 | 99 | 1017.2 |
| 20260507041541 | 12 | 180 | 0.0 | 0.0 | 0.00 | 0.00 | 0.00 | 99 | 1017.2 |
| 20260507040932 | 12 | 225 | 0.0 | 0.0 | 0.00 | 0.00 | 0.00 | 99 | 1017.2 |
| 20260507040332 | 12 | 203 | 0.0 | 0.0 | 0.00 | 0.00 | 0.00 | 99 | 1016.9 |
| 20260507035713 | 12 | 248 | 0.0 | 0.0 | 0.00 | 0.00 | 0.00 | 99 | 1016.9 |
| 20260507035145 | 12 | 248 | 0.0 | 0.0 | 0.00 | 0.00 | 1.42 | 99 | 1016.9 |
| 20260507034518 | 12 | 90 | 0.0 | 0.0 | 0.00 | 0.00 | 1.42 | 99 | 1016.9 |
| 20260507033911 | 12 | 90 | 0.0 | 0.0 | 0.00 | 0.00 | 1.42 | 99 | 1016.9 |
| 20260507033343 | 11 | 90 | 1.6 | 4.8 | 0.00 | 0.00 | 1.42 | 99 | 1016.9 |
| 20260507032121 | 12 | 90 | 0.0 | 0.0 | 0.00 | 0.00 | 1.42 | 99 | 1016.9 |
| 20260507030950 | 12 | 113 | 0.0 | 0.0 | 0.00 | 0.00 | 1.42 | 99 | 1017.6 |
| 20260507030351 | 12 | 68 | 0.0 | 0.0 | 0.00 | 0.00 | 1.42 | 99 | 1017.6 |
| 20260507025726 | 12 | 203 | 0.0 | 0.0 | 0.00 | 0.00 | 1.42 | 99 | 1017.6 |
| 20260507024540 | 12 | 158 | 0.0 | 0.0 | 0.00 | 0.00 | 1.42 | 99 | 1016.5 |
| 20260507023911 | 12 | 180 | 0.0 | 0.0 | 0.00 | 0.00 | 1.42 | 99 | 1016.5 |